User: anonymous   Login
Location: Campillo
(40.8621°N, 4.2488°W)
Time: 23:43:25
(UTC+00:00)
Language:

Cosmos 1666 - Orbit

View from above orbital plane
View from above orbital plane
View from above satellite
View from above satellite

Ground track
Ground track

The orbit data is extracted from the following two-line orbital elements,

1 15889U 85058A   21204.55100491  .00001280  00000-0  58498-4 0  9990
2 15889  82.4888 308.0113 0015132 248.9083 111.0534 15.19582344969116
Epoch (UTC): 23 July 2021 13:13:26
Eccentricity: 0.0015132
inclination: 82.4888°
perigee height: 496 km
apogee height: 517 km
right ascension of ascending node: 308.0113°
argument of perigee: 248.9083°
revolutions per day: 15.19582344
mean anomaly at epoch: 111.0534°
orbit number at epoch: 96911

The dashed part of the orbit path shows where the satellite is in the earth's shadow,  

DLR